COSMOS 2251 DEB, 34823

Orbit data source: Space-Track

COSMOS 2251 DEB, 34823 is space debris in LEO originally from a launch on Wed, 16 Jun 1993 UTC launched from the Plesetsk Missile And Space Complex (PKMTR). The debris from Iridium 33, an American commercial communications satellite, has been tracked extensively since its accidental collision with the defunct Russian satellite Cosmos 2251 in 2009. This event, occurring at high speed in low Earth orbit (LEO), generated thousands of pieces of space debris, significantly increasing the risk of further collisions. The Iridium 33 debris cloud has impacted space traffic management and orbital debris mitigation strategies, making it a subject of ongoing study in space situational awareness.

Loading next visibility...
Identifier
34823, 1993-036ABN
Orbit
LEO
Country
Flag of CISCIS
Related business
Manufacturer
Unknown
Mission
Spacecraft
Bus & Motor
Unknown
Mass
Unknown
Launch date (UTC)
1993-06-16 (33 years ago)
Launch vehicle
Unknown
Launch site
Plesetsk Missile And Space Complex (PKMTR)
Object type
Payload
Rocket body
Debris
Shape & HBR
Unknown shape, 0.1 m
Radar Cross Section
Medium (>0.1 m² and <1 m²)

Expand to show TLE details & history
Last TLE update: 2 days ago

TLE from 2 days ago
0 COSMOS 2251 DEB
1 34823U 93036ABN 26236.25464393  .00000855  00000-0  17276-3 0  9990
2 34823  74.0421 340.0195 0153101 359.5061   0.5925 14.55919730920840
Epoch: 2026-08-24T06:06Z
TLE epoch observation values (Epoch: 2026-08-24T06:06:41.235Z)
Latitude
-0°
Longitude
-84.19129°
Altitude
600.539 km
Speed
7.617 km/s
True Right ascension
22h 40m 04s
True Declination
0° 00' 00"
Sunlit
Object was in full shadow at epoch
Visualization orbit readout
Latitude
Unknown
Longitude
Unknown
Altitude
Unknown
Speed
Unknown
Apparent Right ascension
Unknown
Apparent Declination
Unknown
Sunlit
N/A
Visualization observer readout
Local Sidereal Time
15:53:14
Azimuth
Unknown
Elevation
Unknown
Doppler factor
Unknown
Orbital elements
Apogee altitude
812.408 km
Perigee altitude
595.552 km
Semi-major axis
7,082.117 km
Eccentricity
0.01531
Inclination
74.0421°
RAAN
340.0195°
Arg. of periapsis
359.5061°
True anomaly
0.611°
Mean anomaly
0.5925°
Eccentric anomaly
0.60171°
Mean motion
3.64165 °/min
Orbital period
98.86 mins
BSTAR
0.00017276
Loading maneuver chart data...
Computing Atmospheric mass density...

Documentation

Showing up to 5 results
|